Regional Weather Roundup
Issued by NWS

Home | Current Version | Previous Version | Text Only | Print | Product List | Glossary Off
Versions: 1 2 3 4 5 6 7 8 9 10 11 12 13 14 15 16 17 18 19 20 21 22 23 24 25 26 27 28 29 30 31 32 33 34 35 36 37 38 39 40 41 42 43 44 45 46 47 48 49 50

000
ASUS44 KMEG 250210
RWRTN
TENNESSEE HOURLY STATE WEATHER ROUNDUP
NATIONAL WEATHER SERVICE MEMPHIS TN
800 PM CST FRI NOV 24 2017

TNZ002-004-019-021-049-052-054-088>092-250300-
WEST TENNESSEE

CITY           SKY/WX    TMP DP  RH WIND       PRES   REMARKS
MEMPHIS INTL   PTCLDY    52  31  44 S8        29.89S
NWS MEMPHIS      N/A     55 N/A N/A MISG        N/A
JACKSON        CLEAR     51  31  46 S8        29.89S
DYERSBURG      MOCLDY    53  33  46 S7        29.85F
SOMERVILLE     CLEAR     52  32  46 S6        29.89R
COVINGTON      PTCLDY    52  32  46 S7        29.87F
UNION CITY     CLEAR     52  34  50 S12       29.83F
BOLIVAR        CLEAR     48  30  49 CALM      29.89S
PARIS          CLEAR     52  32  46 S10       29.84S HAZE
HUNTINGDON     CLEAR     52  30  43 S8        29.86S
LEXINGTON      CLEAR     50  28  43 S5        29.89F
SELMER         CLEAR     52  27  37 S6        29.90S
SAVANNAH       CLEAR     46  32  57 SE5       29.91S
$$

TNZ008-025-027-028-033-062-065-066-250300-
NORTH MIDDLE TENNESSEE

CITY           SKY/WX    TMP DP  RH WIND       PRES   REMARKS
NASHVILLE      CLEAR     49  31  49 S7        29.91R
PORTLAND       CLEAR     50  30  46 S8        29.88S
CLARKSVILLE    CLEAR     49  26  41 S8        29.86S
SMYRNA         CLEAR     41  33  73 SE3       29.93R
COOKEVILLE     CLEAR     37  34  87 CALM      29.93R
GALLATIN       CLEAR     52  32  46 S6        29.92S
CROSSVILLE     PTCLDY    49  37  63 SW5       29.94R
$$

TNZ061-075-076-078-094-096-097-250300-
SOUTH MIDDLE TENNESSEE

CITY           SKY/WX    TMP DP  RH WIND       PRES   REMARKS
FAYETTEVILLE   CLEAR     52  39  62 S5        29.94R
TULLAHOMA      CLEAR     43  36  75 CALM      29.94R
WINCHESTER     CLEAR     39  36  87 CALM      29.96R
MCMINNVILLE    CLEAR     50  39  66 SW6       29.94R
COLUMBIA       CLEAR     45  30  57 CALM      29.90S
SHELBYVILLE    CLEAR     41  36  81 S3        29.93R
$$

TNZ017-018-042-046-047-250300-
NORTHEAST TENNESSEE

CITY           SKY/WX    TMP DP  RH WIND       PRES   REMARKS
TRI CITIES     PTCLDY    39  34  82 CALM      29.94R
ELIZABETHTON   CLEAR     43  36  75 VRB7      29.95R
$$

TNZ012-013-036-069-073-074-250300-
CENTRAL EAST TENNESSEE

CITY           SKY/WX    TMP DP  RH WIND       PRES   REMARKS
KNOXVILLE      NOT AVBL
OAK RIDGE      PTCLDY    47  40  76 CALM      29.95R
DOWNTOWN KNOXV   N/A     43  43 100 CALM      29.95R
GATLINBURG     CLEAR     43  39  87 CALM      29.94R
MORRISTOWN     CLEAR     46  37  71 CALM      29.93R
JACKSBORO      CLEAR     43  37  81 CALM      29.96R
$$

TNZ083-085-099-250300-
SOUTHEAST TENNESSEE

CITY           SKY/WX    TMP DP  RH WIND       PRES   REMARKS
CHATTANOOGA    PTCLDY    47  40  76 SW3       29.96R
DAYTON         MOCLDY    43  43 100 CALM      29.94R
$$

SKY/WX REPORTED AS FAIR MEANS FEW OR NO CLOUDS BELOW
12 THOUSAND FEET.




USA.gov is the U.S. government's official web portal to all federal, state and local government web resources and services.